Estación Meteorológica Peña el Pijo (Robertgarden) [ 07/07/20 09:46:17 CEST ]

Fecha Hora Presion(HPa) Temp (°C) Humedad % Rocio (°C) Viento ( m/s) Direccion Lluvia 1Hora(mm) Lluvia 24H(mm) LLuvia Total(mm)
2020-Apr-29 01:09:41 1008.600 - - - - W     39.88
2020-Apr-29 02:09:21 1008.600 - - - - W     39.88
2020-Apr-29 03:09:01 1008.300 - - - - W     39.88
2020-Apr-29 04:09:01 1008.100 - - - - W     39.88
2020-Apr-29 05:09:05 1008.000 - - - - W     39.88
2020-Apr-29 06:08:53 1008.100 - - - - W     39.88
2020-Apr-29 07:09:38 1008.400 - - - - W     39.88
2020-Apr-29 08:09:48 1008.900 - - - - W     39.88
2020-Apr-29 09:09:54 1009.300 - - - - W     39.88
2020-Apr-29 10:09:46 1009.900 - - - - W     39.88
2020-Apr-29 11:09:11 1009.900 - - - - W     39.88
2020-Apr-29 12:09:09 1009.900 - - - - W     39.88
2020-Apr-29 13:09:22 1009.400 - - - - W     39.88
2020-Apr-29 14:09:00 1009.100 - - - - W     39.88
2020-Apr-29 15:09:19 1008.700 - - - - W     39.88
2020-Apr-29 16:09:34 1008.500 - - - - W     39.88
2020-Apr-29 17:08:49 1008.100 - - - - W     39.88
2020-Apr-29 18:09:01 1008.300 - - - - W     39.88
2020-Apr-29 19:09:09 1008.800 - - - - W     39.88
2020-Apr-29 20:09:21 1008.900 - - - - W     39.88
2020-Apr-29 21:09:53 1009.300 - - - - W     39.88
2020-Apr-29 22:09:23 1009.700 - - - - W     39.88
2020-Apr-29 23:09:10 1010.000 - - - - W     39.88

Temperatura Máxima:    Temperatura Mínima:
Presión Máxima:1010.000 Hpa    Presión Mínima:1008.000 Hpa


Volver